TimeEDT,TemperatureF,Dew PointF,Humidity,Sea Level PressureIn,VisibilityMPH,Wind Direction,Wind SpeedMPH,Gust SpeedMPH,PrecipitationIn,Events,Conditions,WindDirDegrees,DateUTC
12:54 AM,61.0,46.0,58,29.99,10.0,North,5.8,-,N/A,,Clear,350,2013-10-03 04:54:00
1:54 AM,57.0,46.0,67,30.02,10.0,Calm,Calm,-,N/A,,Clear,0,2013-10-03 05:54:00
2:54 AM,54.0,45.0,72,30.02,10.0,Calm,Calm,-,N/A,,Clear,0,2013-10-03 06:54:00
3:54 AM,46.9,44.1,90,30.03,10.0,Calm,Calm,-,N/A,,Clear,0,2013-10-03 07:54:00
4:54 AM,45.0,43.0,93,30.05,10.0,Calm,Calm,-,N/A,,Clear,0,2013-10-03 08:54:00
5:54 AM,44.1,41.0,89,30.07,10.0,Calm,Calm,-,N/A,,Clear,0,2013-10-03 09:54:00
6:54 AM,42.1,39.9,92,30.10,10.0,Calm,Calm,-,N/A,,Clear,0,2013-10-03 10:54:00
7:54 AM,45.0,43.0,93,30.12,10.0,Calm,Calm,-,N/A,,Clear,0,2013-10-03 11:54:00
8:54 AM,52.0,46.9,83,30.13,10.0,Calm,Calm,-,N/A,,Clear,0,2013-10-03 12:54:00
9:54 AM,60.1,48.0,64,30.13,10.0,North,4.6,-,N/A,,Clear,10,2013-10-03 13:54:00
10:54 AM,63.0,46.0,54,30.13,10.0,NE,5.8,-,N/A,,Clear,40,2013-10-03 14:54:00
11:54 AM,66.0,43.0,43,30.12,10.0,Variable,4.6,-,N/A,,Clear,0,2013-10-03 15:54:00
12:54 PM,68.0,43.0,40,30.10,10.0,NNE,5.8,-,N/A,,Clear,30,2013-10-03 16:54:00
1:54 PM,70.0,44.1,39,30.08,10.0,Variable,4.6,-,N/A,,Clear,0,2013-10-03 17:54:00
2:54 PM,70.0,44.1,39,30.07,10.0,NNE,5.8,-,N/A,,Clear,30,2013-10-03 18:54:00
3:54 PM,70.0,44.1,39,30.06,10.0,NNE,4.6,-,N/A,,Clear,20,2013-10-03 19:54:00
4:54 PM,68.0,45.0,43,30.05,10.0,Calm,Calm,-,N/A,,Clear,0,2013-10-03 20:54:00
5:54 PM,64.0,46.9,54,30.06,10.0,NNW,3.5,-,N/A,,Clear,330,2013-10-03 21:54:00
6:54 PM,57.0,48.9,74,30.08,10.0,South,5.8,-,N/A,,Clear,190,2013-10-03 22:54:00
7:54 PM,54.0,48.9,83,30.09,10.0,Calm,Calm,-,N/A,,Clear,0,2013-10-03 23:54:00
8:54 PM,51.1,46.9,86,30.12,10.0,Calm,Calm,-,N/A,,Clear,0,2013-10-04 00:54:00
9:54 PM,48.0,45.0,89,30.12,10.0,Calm,Calm,-,N/A,,Clear,0,2013-10-04 01:54:00
10:54 PM,46.9,44.1,90,30.12,10.0,Calm,Calm,-,N/A,,Clear,0,2013-10-04 02:54:00